Weather History for Tallahassee, FL

Change the Weather History Date:

Sunday, August 17, 2014

  Actual Average Record
Temperature  
Mean Temperature 84 °F 82 °F  
Max Temperature 94 °F 92 °F 99 °F (1990)
Min Temperature 73 °F 72 °F 63 °F (1983)
Degree Days  
Heating Degree Days 0    
Month to date heating degree days 0  
Since 1 June heating degree days 0  
Since 1 July heating degree days 0  
Cooling Degree Days 19    
Month to date cooling degree days 335  
Year to date cooling degree days 1890  
Since 1 June cooling degree days 1401  
Growing Degree Days 33 (Base 50)    
Moisture  
Dew Point 73 °F    
Average Humidity 73    
Maximum Humidity 88    
Minimum Humidity 57    
Precipitation  
Precipitation 0.13 in 0.23 in 2.20 in (2013)
Month to date precipitation 0.77 4.36  
Year to date precipitation 39.59 40.92  
Sea Level Pressure  
Sea Level Pressure 30.05 in    
Wind  
Wind Speed 3 mph (WSW)    
Max Wind Speed 22 mph    
Max Gust Speed 22 mph    
Visibility 8 miles    
Events Rain , Thunderstorm    
T = Trace of Precipitation, MM = Missing Value Source: NWS Daily Summary

Daily Weather History Graph

Daily Weather History Graph

Search for Another Location

Airport:

Trip Planner

Search our weather history database for the weather conditions in past years. The results will help you decide how hot, cold, wet, or windy it might be!

Date:

Astronomy

Aug. 17, 2014 Rise Set
Actual Time 7:05 AM EDT 8:16 PM EDT
Civil Twilight 6:40 AM EDT 8:42 PM EDT
Nautical Twilight 6:10 AM EDT 9:11 PM EDT
Astronomical Twilight 5:39 AM EDT 9:42 PM EDT
Moon 12:32 AM EDT (8/17) 2:17 PM EDT (8/17)
Length of Visible Light 14h 01m
Length of Day
13h 11m
Waning Gibbous, 48% of the Moon is Illuminated
Aug 17
Waning Gibbous
Aug 25
New
Sep 2
First Quarter
Sep 8
Full
Sep 15
Last Quarter

Hourly Weather History & Observations

Time (EDT) Temp. Heat Index Dew Point Humidity Pressure Visibility Wind Dir Wind Speed Gust Speed Precip Events Conditions
12:53 AM 79.0 °F - 71.1 °F 77% 30.05 in 9.0 mi Calm Calm - N/A   Clear
1:53 AM 75.9 °F - 71.1 °F 85% 30.04 in 8.0 mi Calm Calm - N/A   Clear
2:53 AM 75.2 °F - 71.6 °F 89% 30.04 in 7.0 mi Calm Calm - N/A   Clear
3:53 AM 73.9 °F - 70.0 °F 87% 30.03 in 6.0 mi Calm Calm - N/A   Clear
4:53 AM 75.0 °F - 71.1 °F 87% 30.04 in 6.0 mi Calm Calm - N/A   Clear
5:53 AM 73.9 °F - 70.0 °F 87% 30.05 in 5.0 mi Calm Calm - N/A   Partly Cloudy
6:53 AM 73.0 °F - 70.0 °F 90% 30.07 in 4.0 mi Calm Calm - N/A   Scattered Clouds
7:53 AM 75.9 °F - 72.0 °F 87% 30.08 in 5.0 mi Calm Calm - N/A   Scattered Clouds
8:53 AM 80.1 °F 84.2 °F 73.0 °F 79% 30.09 in 6.0 mi Calm Calm - N/A   Scattered Clouds
9:53 AM 88.0 °F 96.5 °F 73.9 °F 63% 30.09 in 10.0 mi WNW 5.8 mph - N/A   Scattered Clouds
10:43 AM 87.8 °F 95.6 °F 73.4 °F 62% 30.10 in 10.0 mi West 10.4 mph - N/A   Mostly Cloudy
10:53 AM 89.1 °F 98.0 °F 73.9 °F 61% 30.09 in 10.0 mi West 9.2 mph - N/A   Mostly Cloudy
11:53 AM 90.0 °F 97.9 °F 73.0 °F 57% 30.08 in 10.0 mi West 8.1 mph - N/A   Mostly Cloudy
12:14 PM 91.4 °F 98.4 °F 71.6 °F 52% 30.07 in 10.0 mi WNW 8.1 mph 17.3 mph N/A   Mostly Cloudy
12:42 PM 91.4 °F 100.1 °F 73.4 °F 55% 30.06 in 10.0 mi West 10.4 mph - N/A Thunderstorm Thunderstorm
12:53 PM 91.9 °F 97.4 °F 70.0 °F 48% 30.06 in 10.0 mi WSW 12.7 mph - N/A Thunderstorm Thunderstorm
1:53 PM 86.0 °F 90.7 °F 70.0 °F 59% 30.05 in 10.0 mi South 8.1 mph - N/A Thunderstorm Thunderstorm
2:08 PM 86.0 °F 90.4 °F 69.8 °F 58% 30.05 in 10.0 mi SW 10.4 mph - N/A   Mostly Cloudy
2:53 PM 91.0 °F 99.3 °F 73.0 °F 55% 30.04 in 10.0 mi South 8.1 mph - N/A   Mostly Cloudy
3:24 PM 84.2 °F 90.9 °F 73.4 °F 70% 30.05 in 5.0 mi West 16.1 mph 21.9 mph 0.00 in Rain , Thunderstorm Light Thunderstorms and Rain
3:29 PM 84.2 °F 90.9 °F 73.4 °F 70% 30.04 in 1.8 mi West 11.5 mph 21.9 mph 0.02 in Rain , Thunderstorm Heavy Thunderstorms and Rain
3:42 PM 84.2 °F 94.1 °F 77.0 °F 79% 30.05 in 10.0 mi SSW 8.1 mph - 0.13 in Rain , Thunderstorm Light Thunderstorms and Rain
3:53 PM 86.0 °F 93.8 °F 73.9 °F 67% 30.04 in 10.0 mi SSW 5.8 mph - 0.13 in   Mostly Cloudy
4:33 PM 89.6 °F 98.2 °F 73.4 °F 59% 30.03 in 10.0 mi South 6.9 mph - N/A Thunderstorm Thunderstorm
4:53 PM 88.0 °F 95.6 °F 73.0 °F 61% 30.03 in 10.0 mi SSW 9.2 mph - N/A Thunderstorm Thunderstorm
5:53 PM 84.2 °F 90.9 °F 73.4 °F 70% 30.04 in 10.0 mi WSW 9.2 mph - N/A Thunderstorm Thunderstorm
6:22 PM 84.2 °F 90.9 °F 73.4 °F 70% 30.04 in 10.0 mi SW 4.6 mph - N/A   Mostly Cloudy
6:53 PM 82.0 °F 87.9 °F 73.9 °F 76% 30.04 in 10.0 mi SSW 4.6 mph - 0.00 in Rain Light Rain
7:53 PM 81.0 °F 86.2 °F 73.9 °F 79% 30.04 in 10.0 mi Calm Calm - 0.00 in   Mostly Cloudy
8:53 PM 80.1 °F 84.5 °F 73.9 °F 81% 30.02 in 10.0 mi Calm Calm - N/A   Mostly Cloudy
9:53 PM 79.0 °F - 73.9 °F 84% 30.04 in 10.0 mi Calm Calm - N/A   Mostly Cloudy
10:53 PM 78.1 °F - 73.9 °F 87% 30.05 in 10.0 mi Calm Calm - N/A   Scattered Clouds
11:53 PM 77.0 °F - 73.9 °F 90% 30.05 in 10.0 mi Calm Calm - N/A   Clear